This demonstration page uses our WeatherBlox Daily Observations layout. Learn more.

Left ArrowRight Arrow

Hourly Observations for March 24, 2020

Temp ( °F °C ) Dew Point ( °F °C ) Humidity (%) Winds ( mph kmh ) Pressure ( in mb ) Visibility ( mi km ) Precip ( " mm )
12:53 am 00:53 Cloudy 40 4.4 30 -1.1 68 68 WSW 13 20 29.68 1005 10 16 N/A
1:53 am 01:53 Partly Cloudy 37 2.8 30 -1.1 76 76 WSW 10 17 29.70 1006 10 16 N/A
2:53 am 02:53 Clear 38 3.3 27 -2.8 65 65 WSW 16 26 29.70 1006 10 16 N/A
3:53 am 03:53 Clear 35 1.7 26 -3.3 70 70 SW 5 7 29.74 1007 10 16 N/A
4:53 am 04:53 Clear 34 1.1 26 -3.3 73 73 WNW 7 11 29.75 1008 10 16 N/A
5:53 am 05:53 Mostly Cloudy 31 -0.6 27 -2.8 85 85 WNW 8 13 29.81 1009 9 14 N/A
6:15 am 06:15 Cloudy 32 undefined 28 -2.2 85 85 W 13 20 29.88 1012 9 14 N/A
6:36 am 06:36 Cloudy 32 undefined 28 -2.2 85 85 WSW 8 13 29.89 1012 9 14 N/A
6:53 am 06:53 Cloudy 32 undefined 28 -2.2 85 85 W 12 19 29.84 1011 10 16 N/A
7:53 am 07:53 Cloudy 32 undefined 27 -2.8 82 82 W 15 24 29.86 1011 10 16 N/A
8:53 am 08:53 Mostly Cloudy 32 undefined 26 -3.3 79 79 W 15 24 29.89 1012 10 16 N/A
9:17 am 09:17 Mostly Cloudy 33 0.6 26 -3.3 75 75 WNW 16 26 29.93 1014 10 16 N/A
9:53 am 09:53 Cloudy 34 1.1 26 -3.3 73 73 WNW 14 22 29.91 1013 10 16 N/A
10:53 am 10:53 Cloudy 33 0.6 26 -3.3 75 75 WNW 17 28 29.93 1014 10 16 N/A
11:53 am 11:53 Partly Cloudy 35 1.7 26 -3.3 70 70 W 16 26 29.93 1014 10 16 N/A
12:04 pm 12:04 Mostly Cloudy 35 1.7 26 -3.3 70 70 WNW 14 22 29.96 1015 10 16 N/A
12:13 pm 12:13 Partly Cloudy 35 1.7 25 -3.9 67 67 NW 18 30 29.96 1015 10 16 N/A
12:50 pm 12:50 Mostly Cloudy 36 2 25 -4 65 65 NW 15 24 29.97 1015 10 16 N/A
12:53 pm 12:53 Mostly Cloudy 35 1.7 25 -3.9 67 67 NW 13 20 29.94 1014 10 16 N/A
1:53 pm 13:53 Mostly Cloudy 37 2.8 26 -3.3 65 65 NNW 15 24 29.94 1014 10 16 N/A
2:05 pm 14:05 Mostly Sunny 38 3.3 26 -3.3 62 62 NW 13 20 29.95 1014 10 16 N/A
2:24 pm 14:24 Mostly Cloudy 37 2.8 26 -3.3 65 65 NNW 13 20 29.95 1014 10 16 N/A
2:53 pm 14:53 Partly Cloudy 36 2.2 26 -3.3 67 67 NW 9 15 29.93 1014 10 16 N/A
3:02 pm 15:02 Mostly Cloudy 36 2.2 26 -3.3 67 67 NNW 12 19 29.95 1014 10 16 N/A
3:13 pm 15:13 Partly Cloudy 36 2.2 26 -3.3 67 67 NW 12 19 29.95 1014 10 16 N/A
3:53 pm 15:53 Partly Cloudy 37 2.8 26 -3.3 65 65 NNW 10 17 29.93 1014 10 16 N/A
4:18 pm 16:18 Mostly Cloudy 36 2.2 25 -3.9 64 64 NNW 7 11 29.95 1014 10 16 N/A
4:53 pm 16:53 Partly Cloudy 36 2.2 25 -3.9 64 64 N 7 11 29.93 1014 10 16 N/A
5:43 pm 17:43 Cloudy 35 1.7 26 -3.3 70 70 NNE 12 19 29.95 1014 10 16 N/A
5:53 pm 17:53 Cloudy 34 1.1 25 -3.9 70 70 NE 9 15 29.94 1014 10 16 N/A
6:26 pm 18:26 Cloudy 34 1.1 25 -3.9 70 70 NNE 9 15 29.96 1015 10 16 N/A
6:53 pm 18:53 Mostly Sunny 33 0.6 24 -4.4 70 70 NE 8 13 29.93 1014 10 16 N/A
7:53 pm 19:53 Clear 29 -1.7 23 -5 78 78 ENE 8 13 29.94 1014 10 16 N/A
8:53 pm 20:53 Clear 28 -2.2 23 -5 81 81 ENE 10 17 29.94 1014 10 16 N/A
9:53 pm 21:53 Clear 28 -2.2 23 -5 81 81 E 12 19 29.93 1014 10 16 N/A
10:53 pm 22:53 Clear 27 -2.8 22 -5.6 81 81 ENE 13 20 29.93 1014 10 16 N/A
11:53 pm 23:53 Partly Cloudy 26 -3.3 22 -5.6 84 84 E 13 20 29.92 1013 10 16 N/A

Powered by AerisWeather